AO-07 1 07530U 74089B 21203.53366331 -.00000040 00000-0 35111-4 0 9991 2 07530 101.8559 178.0024 0012028 316.7733 153.1053 12.53649520136129 UO-11 1 14781U 84021B 21203.54021913 .00000151 00000-0 24548-4 0 9993 2 14781 97.5932 201.6548 0007699 336.3427 23.7433 14.83304702 12134 LO-19 1 20442U 90005G 21203.39914039 -.00000001 00000-0 16033-4 0 9991 2 20442 98.7433 159.1881 0012813 61.0398 299.2069 14.32991860645839 HUBBLE 1 20580U 90037B 21203.69912064 .00000599 00000-0 25267-4 0 9998 2 20580 28.4688 191.8623 0002951 83.8811 79.0166 15.09686229516592 MET-2/21 1 22782U 93055A 21203.49750278 -.00000020 00000-0 -31280-4 0 9995 2 22782 82.5486 276.0957 0022188 189.9107 180.9488 13.83837267408376 AO-27 1 22825U 93061C 21203.50029397 .00000008 00000-0 20978-4 0 9999 2 22825 98.9163 221.9737 0007419 296.2306 63.8112 14.30119743450998 IO-26 1 22826U 93061D 21203.81213323 .00000015 00000-0 23692-4 0 9992 2 22826 98.9104 222.1986 0007857 280.6481 79.3815 14.30459416451537 FO-29 1 24278U 96046B 21203.49932719 -.00000013 00000-0 20627-4 0 9996 2 24278 98.5654 266.8268 0351156 58.9738 304.5388 13.53105038231232 NOAA-15 1 25338U 98030A 21203.86942141 .00000100 00000-0 60188-4 0 9992 2 25338 98.6798 232.0736 0010576 171.3783 188.7580 14.26046993206292 GO-32 1 25397U 98043D 21203.40465379 -.00000024 00000-0 90096-5 0 9992 2 25397 98.7723 148.8644 0001496 30.1943 329.9322 14.23711914196468 ISS 1 25544U 98067A 21203.40407588 .00003453 00000-0 71172-4 0 9991 2 25544 51.6423 168.5744 0001475 184.3976 313.3642 15.48839820294053 NO-44 1 26931U 01043C 21203.41265138 -.00000035 00000-0 18181-4 0 9999 2 26931 67.0498 190.2144 0006058 262.2074 97.8339 14.30625659 34197 SO-50 1 27607U 02058C 21203.47066783 .00000053 00000-0 28046-4 0 9998 2 27607 64.5537 231.2645 0044851 9.5389 350.6554 14.75767077999694 CO-55 1 27844U 03031E 21203.79075000 .00000070 00000-0 51295-4 0 9991 2 27844 98.6795 211.4659 0009484 343.9314 16.1562 14.22321285937045 CO-57 1 27848U 03031J 21203.79446515 .00000060 00000-0 47024-4 0 9992 2 27848 98.6850 212.0320 0009649 357.5874 2.5255 14.21897088936863 RS-22 1 27939U 03042A 21203.50868231 .00000224 00000-0 48707-4 0 9998 2 27939 98.1458 340.3666 0013451 163.9357 196.2278 14.67002301952660 NOAA-18 1 28654U 05018A 21203.79009880 .00000083 00000-0 69039-4 0 9990 2 28654 98.9921 268.7920 0014408 178.3224 181.7998 14.12623982833525 CO-58 1 28895U 05043F 21203.35292280 .00000145 00000-0 36724-4 0 9999 2 28895 98.0633 335.8376 0018157 100.2159 260.1092 14.63934665839117 Falconsat-3 1 30776U 07006E 21203.80326401 .00006225 00000-0 14764-3 0 9998 2 30776 35.4328 232.9861 0003333 236.2894 123.7517 15.41097214798562 CO-65 1 32785U 08021C 21203.41712197 .00000358 00000-0 43862-4 0 9999 2 32785 97.6129 180.9072 0011464 244.8798 115.1231 14.88754599717375 AAUSAT2 1 32788U 08021F 21203.54667933 .00000911 00000-0 86750-4 0 9991 2 32788 97.5058 196.7347 0012486 144.6963 215.5088 14.95653535719108 DO-64 1 32789U 08021G 21203.35915869 .00002336 00000-0 15079-3 0 9993 2 32789 97.3740 237.3789 0012377 30.7311 329.4641 15.09149484722099 CO-66 1 32791U 08021J 21203.38377070 .00000517 00000-0 57000-4 0 9995 2 32791 97.5724 186.7521 0012372 203.8288 156.2360 14.91452586717984 RS-30 1 32953U 08025A 21203.72089474 .00000021 00000-0 80971-4 0 9998 2 32953 82.5043 28.9943 0018671 260.3676 99.5291 12.43102555597367 PRISM 1 33493U 09002B 21203.40354821 .00000391 00000-0 38814-4 0 9999 2 33493 98.1917 167.6366 0014759 164.6881 195.4789 14.97741915679557 NOAA-19 1 33591U 09005A 21203.75666757 .00000086 00000-0 71556-4 0 9994 2 33591 99.1818 225.3340 0014521 37.2021 323.0153 14.12484167641901 SRMSAT 1 37841U 11058D 21203.38416270 .00000287 00000-0 12284-4 0 9995 2 37841 19.9729 89.9512 0011749 317.6848 199.3192 14.10699101504594 HRBE 1 37855U 11061F 21203.79172504 .00003891 00000-0 19173-3 0 9995 2 37855 101.7116 145.5185 0166148 325.6524 33.4034 15.07905390531970 RS-40 1 38735U 12041C 21203.45777729 .00000016 00000-0 46012-4 0 9994 2 38735 82.4774 111.2751 0017976 13.4317 346.7232 12.42583367407534 ZACUBE-1 1 39417U 13066B 21203.70555436 .00000482 00000-0 65995-4 0 9995 2 39417 97.5945 186.2092 0059795 46.6577 313.9597 14.81547271414290 GOMX-1 1 39430U 13066Q 21203.83642777 .00000263 00000-0 56401-4 0 9998 2 39430 97.8127 124.8737 0150937 4.0240 356.2147 14.59639149408205 LO-74 1 39440U 13066AA 21203.42688236 .00000289 00000-0 46633-4 0 9998 2 39440 97.6783 171.0506 0081075 121.4295 239.4876 14.76270106411589 AO-73 1 39444U 13066AE 21203.66803777 .00000601 00000-0 79105-4 0 9995 2 39444 97.5847 188.5441 0058659 37.1508 323.3744 14.82462206413249 SPROUT 1 39770U 14029E 21203.56759546 .00001007 00000-0 11436-3 0 9993 2 39770 97.9191 314.8181 0010179 93.4895 266.7469 14.88513478388565 DTUSAT-2 1 40030U 14033W 21203.76896696 .00000440 00000-0 52668-4 0 9992 2 40030 97.9157 131.0084 0013223 61.9724 298.2828 14.89026186385082 EO-80 1 40032U 14033Y 21203.80037270 .00000500 00000-0 59075-4 0 9990 2 40032 97.9164 131.0471 0013184 62.6223 297.6334 14.88984637385077 HODOYOSHI-1 1 40299U 14070B 21203.48474553 .00000757 00000-0 33312-4 0 9999 2 40299 97.2850 276.1159 0011598 218.5184 267.7759 15.24799374372759 FIREBIRD FU3 1 40377U 15003B 21203.51446830 .00004581 00000-0 16603-3 0 9996 2 40377 99.1035 352.1029 0117585 55.7341 305.4959 15.22736854358121 FIREBIRD FU4 1 40378U 15003C 21203.55539331 .00004790 00000-0 17306-3 0 9993 2 40378 99.1040 352.2989 0117657 55.4033 305.8230 15.22789778358140 GRIFEX 1 40379U 15003D 21203.66434794 .00004366 00000-0 17549-3 0 9991 2 40379 99.0998 341.4441 0128816 88.1198 273.4778 15.18293719357538 NO-84 1 40654U 15025D 21202.42401923 .00032403 00000-0 20379-3 0 812 2 40654 54.9778 240.9800 0070863 152.4749 208.0238 15.72931023 12391 XW-2A 1 40903U 15049E 21203.84536247 .00003257 00000-0 69507-4 0 9990 2 40903 97.2337 258.2197 0010541 241.0487 176.9714 15.45570920328264 XW-2C 1 40906U 15049H 21203.86000200 .00001003 00000-0 54287-4 0 9996 2 40906 97.4859 205.7708 0016164 67.6801 50.1541 15.16819593322931 XW-2D 1 40907U 15049J 21203.51661473 .00000991 00000-0 53216-4 0 9990 2 40907 97.4843 205.2373 0015527 65.1092 51.1682 15.17149158322914 LILACSAT-2 1 40908U 15049K 21203.50621036 .00000272 00000-0 18328-4 0 9998 2 40908 97.5039 203.0211 0017451 79.5622 44.0775 15.14483066322534 XW-2E 1 40909U 15049L 21203.54531522 .00001545 00000-0 75497-4 0 9997 2 40909 97.4658 209.3204 0014551 52.5968 66.4421 15.19665156323268 XW-2F 1 40910U 15049M 21203.82439905 .00001509 00000-0 74867-4 0 9992 2 40910 97.4717 208.6763 0015660 51.3764 71.7590 15.19165970323097 XW-2B 1 40911U 15049N 21203.85167918 .00000981 00000-0 52864-4 0 9994 2 40911 97.4845 206.2452 0015431 65.3116 53.9746 15.17065852322855 DCBB 1 40912U 15049P 21203.50468690 .00001636 00000-0 75175-4 0 9996 2 40912 97.4435 212.7383 0015032 26.7156 124.6630 15.21722841323524 TW-1A 1 40928U 15051D 21203.87717856 .00005019 00000-0 10364-3 0 9994 2 40928 97.0747 227.9319 0010164 151.8327 332.8604 15.46242559327169 IO-86 1 40931U 15052B 21202.98889780 .00000792 00000-0 21239-4 0 9993 2 40931 6.0002 6.0625 0012980 174.0988 185.9188 14.76682420314416 ATHENOXAT-1 1 41168U 15077C 21203.79533588 .00002604 00000-0 96272-4 0 9998 2 41168 14.9888 1.1197 0011218 307.7657 90.7387 15.15843658310157 ChubuSat-2 1 41338U 16012B 21203.52377268 .00000529 00000-0 34130-4 0 9998 2 41338 31.0039 322.8936 0013484 121.1638 239.0321 15.00556843297872 ChubuSat-3 1 41339U 16012C 21203.47687368 .00000386 00000-0 22990-4 0 9990 2 41339 31.0129 320.3780 0013138 127.9722 232.2135 15.00701497297861 Horyu-4 1 41340U 16012D 21203.64302940 .00000820 00000-0 54569-4 0 9991 2 41340 31.0054 302.4618 0013603 162.5053 197.6053 15.01936915298084 e-st@r-II 1 41459U 16025D 21203.84390894 .00001476 00000-0 75773-4 0 9991 2 41459 98.1461 342.1647 0158365 303.4683 55.1497 15.08238566287750 AAUSAT4 1 41460U 16025E 21203.33648703 .00001526 00000-0 74586-4 0 9999 2 41460 98.1454 345.6820 0145060 288.4417 70.1123 15.11372301287988 LO-87 1 41557U 16033B 21203.52208541 .00001898 00000-0 68607-4 0 9997 2 41557 97.3946 297.2677 0014491 108.4170 308.8056 15.29614749286893 NuSat2 1 41558U 16033C 21203.53193641 .00001969 00000-0 66706-4 0 9990 2 41558 97.4060 301.2604 0013639 103.1710 267.5514 15.31707779287095 Lapan A3 1 41603U 16040E 21203.81571488 .00000068 00000-0 61887-5 0 9994 2 41603 97.2535 249.4008 0011862 234.5396 245.8156 15.20058252281950 Pratham 1 41783U 16059A 21203.41045914 .00000084 00000-0 25273-4 0 9995 2 41783 97.9618 252.3146 0034605 134.1842 226.2213 14.63152217257362 TY-1 1 41844U 16066D 21203.87602061 .00001273 00000-0 52400-4 0 9996 2 41844 97.3980 213.7258 0015215 19.9453 100.6971 15.25888756261303 CAS-2T 1 41847U 16066G 21203.74885720 .00000294 00000-0 53333-4 0 9998 2 41847 98.5990 263.0217 0366319 114.9889 248.9811 14.38213895246958 EO-88 1 42017U 17008BX 21203.13170629 .00002895 00000-0 10743-3 0 9999 2 42017 97.3144 270.1113 0005608 3.5068 356.6210 15.28376980246554 CAS-4B 1 42759U 17034B 21203.82492348 .00000373 00000-0 35712-4 0 9995 2 42759 43.0190 346.6168 0008279 15.8106 150.1767 15.10273815226490 CAS-4A 1 42761U 17034D 21203.53478501 .00000454 00000-0 40488-4 0 9997 2 42761 43.0188 347.2402 0008596 15.4193 71.4683 15.10362109226455 NIUSat 1 42766U 17036B 21203.07615461 .00001655 00000-0 73342-4 0 9990 2 42766 97.2477 247.8452 0016444 57.9037 302.3794 15.22856192226486 Aalto 1 1 42775U 17036L 21203.37895373 .00001434 00000-0 64110-4 0 9993 2 42775 97.2445 248.3698 0014912 56.4718 303.7941 15.22783108226516 URSA MAIOR 1 42776U 17036M 21203.37525703 .00001609 00000-0 71039-4 0 9993 2 42776 97.2460 248.8524 0014683 55.9863 304.2767 15.23057060226533 Max Valier Sat 1 42778U 17036P 21203.43897708 .00001803 00000-0 77755-4 0 9996 2 42778 97.2526 250.9001 0013304 58.3955 301.8579 15.23732148226610 Pegasus 1 42784U 17036V 21203.42174852 .00002154 00000-0 90039-4 0 9990 2 42784 97.2479 251.3759 0012915 61.1164 299.1368 15.24580485226688 NUDATSat 1 42787U 17036Y 21203.57951927 .00002560 00000-0 10035-3 0 9993 2 42787 97.2519 254.0521 0012207 53.4421 306.7943 15.26593309226693 SUCHAI 1 1 42788U 17036Z 21203.33671957 .00002786 00000-0 11290-3 0 9994 2 42788 97.2491 252.3285 0012334 59.1806 301.0645 15.25400461226807 SKCUBE 1 42789U 17036AA 21203.37205766 .00002388 00000-0 97983-4 0 9992 2 42789 97.2484 252.0584 0012267 59.4317 300.8130 15.25124094226715 VZLUSAT 1 1 42790U 17036AB 21203.37752728 .00003534 00000-0 13760-3 0 9993 2 42790 97.2518 253.8452 0011513 55.9716 304.2615 15.26568612226811 VENTA 1 1 42791U 17036AC 21203.09201630 .00001927 00000-0 79741-4 0 9990 2 42791 97.2480 251.7972 0012007 60.9310 299.3129 15.25059467226668 Robusta 1B 1 42792U 17036AD 21203.66341955 .00003475 00000-0 14025-3 0 9992 2 42792 97.2488 252.7338 0011825 58.9155 301.3243 15.25372264226793 D-SAT 1 42794U 17036AF 21203.30973586 .00000469 00000-0 45130-4 0 9998 2 42794 97.4600 221.3479 0127062 109.2395 252.2621 14.91608700222258 TechnoSat 1 42829U 17042E 21203.61329781 .00000183 00000-0 23600-4 0 9991 2 42829 97.4647 71.2747 0015122 35.2888 324.9329 14.91309332218926 QIKCOM-1 1 42983U 98067NF 21203.27336193 .00009541 00000-0 91360-4 0 9990 2 42983 51.6371 82.3769 0003703 117.8463 242.2909 15.67446638212866 AO-91 1 43017U 17073E 21203.29721839 .00000537 00000-0 46676-4 0 9990 2 43017 97.7038 105.9032 0254489 186.3812 173.4142 14.79606170198272 EcAMSat 1 43019U 98067NG 21203.64686363 .00048236 00000-0 23675-3 0 9996 2 43019 51.6381 42.0931 0002298 129.7118 230.4087 15.81713848295750 PICSAT 1 43132U 18004X 21203.20675878 .00002141 00000-0 85953-4 0 9999 2 43132 97.4082 277.4384 0010703 87.3423 272.9040 15.26013966195983 AO-92 1 43137U 18004AC 21203.75775668 .00002306 00000-0 94090-4 0 9997 2 43137 97.4055 277.4289 0010485 88.1386 272.1053 15.25393967196030 TianYi 2 1 43155U 18008A 21203.52800462 .00001119 00000-0 67715-4 0 9992 2 43155 97.4004 267.4399 0016514 202.1834 269.4739 15.12530835193377 Zhou Enlai 1 43156U 18008B 21203.47418272 .00000817 00000-0 50954-4 0 9992 2 43156 97.4045 267.2234 0013795 200.8761 284.2150 15.12141229193301 TianYi 6 1 43158U 18008D 21203.41839329 .00000861 00000-0 54375-4 0 9998 2 43158 97.4000 265.6960 0012877 199.7307 223.3135 15.11561629193221 S-Net D 1 43186U 18014G 21203.31266770 -.00000142 00000-0 -72712-5 0 9999 2 43186 97.6753 110.2713 0010345 333.6511 26.4184 14.97094753189519 S-Net B 1 43187U 18014H 21203.31259853 -.00000143 00000-0 -73724-5 0 9999 2 43187 97.6751 110.2364 0010344 333.5641 26.5052 14.97094172189512 S-Net A 1 43188U 18014J 21203.31267665 -.00000140 00000-0 -70797-5 0 9994 2 43188 97.6755 110.2827 0010351 333.7263 26.3433 14.97093066189513 S-Net C 1 43189U 18014K 21203.31316101 -.00000163 00000-0 -91447-5 0 9995 2 43189 97.6749 110.2293 0010363 333.4863 26.5827 14.97092691188061 FMN 1 1 43192U 18015A 21203.50259418 .00003291 00000-0 12172-3 0 9997 2 43192 97.4924 339.0559 0015943 117.0766 307.8232 15.28312128192943 Shaonian Xing 1 43199U 18015H 21203.55117233 .00002478 00000-0 93924-4 0 9998 2 43199 97.4708 336.1318 0017213 126.0272 4.4055 15.27722267193004 SurfSat 1 43614U 18070B 21203.38603074 .00005867 00000-0 13537-3 0 9991 2 43614 93.0350 320.5480 0012214 219.0321 141.0055 15.42508149160057 CP-7 DAVE 1 43615U 18070C 21203.34514335 .00005679 00000-0 13237-3 0 9997 2 43615 93.0356 320.4825 0012380 219.6081 140.4271 15.42202784160036 ELFIN-B 1 43616U 18070D 21203.29982414 .00009244 00000-0 19377-3 0 9992 2 43616 93.0307 320.6965 0012367 216.2953 143.7467 15.45325357160157 ELFIN-A 1 43617U 18070E 21203.31332873 .00010272 00000-0 21165-3 0 9995 2 43617 93.0355 321.5825 0011877 212.1736 147.8798 15.45830904160178 CubeBel-1 1 43666U 18083E 21203.48821993 .00001479 00000-0 72750-4 0 9993 2 43666 97.4533 231.4125 0015942 51.6881 84.1404 15.19473091151330 Changshagaoxin 1 43669U 18083H 21203.84303392 .00001232 00000-0 63443-4 0 9990 2 43669 97.4446 228.7280 0011928 48.1849 126.0272 15.18225566151253 Ten-Koh 1 43677U 18084G 21203.29769417 .00000282 00000-0 34824-4 0 9998 2 43677 97.9242 326.4326 0014587 280.7757 79.1819 14.90488826148490 PO-101 1 43678U 18084H 21203.73555048 .00000248 00000-0 30340-4 0 9992 2 43678 97.9283 329.2057 0008504 298.9594 61.0763 14.91768629148693 IRVINE 01 1 43693U 18088D 21203.64191571 .00006677 00000-0 25829-3 0 9997 2 43693 85.0350 171.5687 0013538 252.0205 107.9564 15.25918924149809 QO-100 1 43700U 18090A 21203.33174424 .00000134 00000-0 00000-0 0 9996 2 43700 0.0144 70.8277 0001729 73.3275 301.3386 1.00271159 9720 Reaktor Hello World 1 43743U 18096AA 21203.79198851 .00003413 00000-0 12350-3 0 9996 2 43743 97.3854 281.0361 0018108 146.8754 213.3624 15.28962151147534 MinXSS-2 1 43758U 18099A 21203.75017026 .00001133 00000-0 10571-3 0 9995 2 43758 97.6657 274.2093 0013813 292.7914 67.1847 14.96106369143798 AO-95 1 43770U 18099N 21203.78137906 .00000307 00000-0 32957-4 0 9997 2 43770 97.6632 273.1864 0013183 302.6529 57.3419 14.95362859143739 RANGE-B 1 43772U 18099Q 21203.73561835 .00001069 00000-0 10113-3 0 9991 2 43772 97.6721 274.1916 0012509 288.1061 71.8797 14.95672934143737 RANGE-A 1 43773U 18099R 21203.12033014 .00000266 00000-0 29285-4 0 9997 2 43773 97.6566 271.8284 0012048 290.9115 69.0816 14.95242399143623 MOVE-II 1 43780U 18099Y 21203.19319234 .00000835 00000-0 79471-4 0 9997 2 43780 97.6651 273.1859 0011988 300.7683 59.2357 14.95987532143661 SNUSat 2 1 43782U 18099AA 21203.74154497 .00000993 00000-0 94533-4 0 9999 2 43782 97.6635 273.5008 0011076 287.4850 72.5160 14.95602262143743 SnugLite 1 43784U 18099AC 21203.74692696 .00001010 00000-0 95645-4 0 9995 2 43784 97.6600 273.2235 0013414 295.9619 64.0219 14.95733229143762 ITASat 1 1 43786U 18099AE 21203.15850952 .00000396 00000-0 40711-4 0 9993 2 43786 97.6658 273.2796 0013652 297.7737 62.2100 14.95654104143677 EAGLET 1 1 43790U 18099AJ 21203.18491336 .00000162 00000-0 19555-4 0 9991 2 43790 97.6643 273.7314 0012181 301.2714 58.7313 14.95999436143406 ESEO 1 43792U 18099AL 21203.44283924 -.00000289 00000-0 -20760-4 0 9996 2 43792 97.6610 273.5485 0012003 297.8705 62.1300 14.95757168143490 CSIM 1 43793U 18099AM 21203.44729599 .00000401 00000-0 40141-4 0 9999 2 43793 97.6641 274.0002 0011536 292.4465 67.5535 14.96653088143508 Astrocast 0.1 1 43798U 18099AS 21203.73126738 .00000723 00000-0 69087-4 0 9999 2 43798 97.6647 274.4765 0010822 276.1259 83.8729 14.96230261143797 JO-97 1 43803U 18099AX 21203.18344222 .00000236 00000-0 26216-4 0 9991 2 43803 97.6613 273.0520 0013726 296.7511 63.2306 14.95904189143683 Suomi 100 1 43804U 18099AY 21203.72477555 .00000606 00000-0 59293-4 0 9990 2 43804 97.6610 273.5451 0013713 294.7205 65.2589 14.95874035143774 Al Farabi 2 1 43805U 18099AZ 21203.38614537 .00000085 00000-0 12689-4 0 9995 2 43805 97.6628 273.4538 0013864 295.7244 64.2573 14.96098946143738 CHOMPTT 1 43855U 18104G 21203.64692124 .00001846 00000-0 74031-4 0 9999 2 43855 85.0365 270.1762 0017746 24.2681 335.9394 15.24101856144454 ISAT 1 43879U 18111D 21203.82977030 .00000880 00000-0 82072-4 0 9996 2 43879 97.6821 110.4618 0012531 352.5836 7.5202 14.96679442138348 UWE-4 1 43880U 18111E 21203.27747422 .00000687 00000-0 64851-4 0 9997 2 43880 97.6839 110.4139 0011925 354.6908 5.4185 14.96909625140299 Sparrow 1 43881U 18111F 21203.31369457 .00000104 00000-0 14094-4 0 9999 2 43881 97.6857 110.5886 0012395 352.8103 7.2939 14.96973631140306 Lume 1 1 43908U 18111AJ 21203.27258656 .00001729 00000-0 68888-4 0 9996 2 43908 97.2297 96.8670 0020735 163.0463 197.1474 15.26359286142982 FO-98 1 43933U 19003B 21203.08568515 .00014016 00000-0 51740-3 0 9993 2 43933 97.1811 243.2088 0013629 267.5496 92.4183 15.27778151139394 FO-99 1 43937U 19003F 21203.34178809 .00002150 00000-0 86091-4 0 9993 2 43937 97.1740 245.1242 0021362 246.9161 112.9826 15.25904177139585 MYSat 1 1 44045U 18092F 21203.31496066 .00004270 00000-0 11402-3 0 9994 2 44045 51.6371 256.0156 0010243 336.3620 23.6893 15.40301998136832 AstroCast 0.2 1 44083U 19018F 21203.40133814 .00001862 00000-0 82762-4 0 9996 2 44083 97.3707 263.8262 0012114 202.4856 157.5851 15.22707481128212 AISTechSat 3 1 44103U 19018AB 21203.46917505 .00001079 00000-0 47149-4 0 9992 2 44103 97.3569 264.2961 0011875 214.8586 260.8827 15.24171779128344 AISat 1 1 44104U 19018AC 21203.21792478 .00001457 00000-0 47392-4 0 9996 2 44104 97.4248 280.5799 0055204 230.5386 129.0965 15.32173155128996 Raavana-1 1 44329U 98067QE 21202.45159272 .00085679 00000-0 41479-3 0 9997 2 44329 51.6347 109.0317 0004027 85.1855 274.9607 15.81772748119530 Uguisu 1 44330U 98067QF 21203.09616582 .00081811 00000-0 40929-3 0 9995 2 44330 51.6298 106.4728 0003990 84.5980 275.5477 15.81080219119609 NepaliSat-1 1 44331U 98067QG 21203.14493399 .00076168 00000-0 36991-3 0 9994 2 44331 51.6321 105.3044 0003868 88.4036 271.7410 15.81751197119633 Prox-1 1 44339U 19036A 21203.17324954 .00001019 00000-0 18928-3 0 9997 2 44339 24.0002 115.5269 0011424 198.7742 161.2328 14.53642874110236 Oculus-ASR 1 44348U 19036K 21203.44399635 .00016968 00000-0 22589-3 0 9992 2 44348 28.5138 260.8945 0325669 285.9369 70.5575 15.13213014114218 Armadillo 1 44352U 19036P 21203.36895294 .00027357 00000-0 33794-3 0 9994 2 44352 28.5273 237.4353 0292600 322.2704 35.7701 15.21431882114399 NO-104 1 44354U 19036R 21203.43704713 .00018123 00000-0 23556-3 0 9995 2 44354 28.5294 253.6128 0320512 295.6514 61.1303 15.14768800114284 NO-103 1 44355U 19036S 21203.34212622 .00044386 -55566-5 45232-3 0 9997 2 44355 28.5249 203.2256 0252837 17.8478 343.0817 15.32513210114785 CP9 1 44360U 19036X 21203.06751937 .00101833 -37515-5 58081-3 0 9990 2 44360 28.5005 129.9409 0161479 139.2101 222.0716 15.61098745115359 Move-IIb 1 44398U 19038N 21203.60958284 .00001662 00000-0 95225-4 0 9991 2 44398 97.5854 167.4641 0023703 184.3573 175.7450 15.13789640113089 SONATE 1 44400U 19038Q 21203.83942311 .00000507 00000-0 32659-4 0 9993 2 44400 97.5925 167.5389 0024462 184.7319 175.3686 15.12607215113080 BeeSat 9 1 44412U 19038AC 21203.64648569 .00001659 00000-0 96290-4 0 9993 2 44412 97.5901 167.6491 0021692 188.5697 171.5167 15.13383183112778 JAISAT-1 1 44419U 19038F 21203.40669988 .00001355 00000-0 78291-4 0 9996 2 44419 97.5905 167.9853 0020621 187.2923 172.8012 15.13865928113083 LightSail-2 1 44420U 19036AC 21203.36863372 .00006400 00000-0 12556-2 0 9990 2 44420 24.0045 91.3266 0020839 220.6024 139.2914 14.60093514108603 Taurus 1 1 44530U 19059C 21203.73757986 .00000471 00000-0 14429-3 0 9995 2 44530 98.5526 294.3833 0014428 42.4762 317.7541 14.46112633 98184 Duchifat 3 1 44854U 19089C 21203.81842427 .00000324 00000-0 32276-4 0 9999 2 44854 36.9680 251.4893 0007445 57.8271 302.3197 14.99543487 88411 OPS-SAT 1 44878U 19092F 21203.42334791 .00001258 00000-0 67622-4 0 9996 2 44878 97.4757 26.4089 0015044 53.0514 307.2094 15.16619901 88137 TO-108 1 44881U 19093C 21203.79183663 .00000061 00000-0 14499-4 0 9996 2 44881 97.9238 282.2354 0015119 172.6270 187.5174 14.81464475 85968 FloripaSat 1 1 44885U 19093G 21203.79240701 .00000264 00000-0 39692-4 0 9994 2 44885 97.9260 282.8724 0014747 180.1961 179.9252 14.82329168 86009 RS-44 1 44909U 19096E 21203.18386857 .00000016 00000-0 20551-4 0 9999 2 44909 82.5208 89.7393 0217834 12.2092 348.4169 12.79710886 73265 SwampSat-2 1 45115U 19071E 21203.59747293 .00097016 00000-0 12806-2 0 9990 2 45115 51.6323 200.2613 0008404 60.0620 300.1205 15.57551166 82915 HO-107 1 45119U 19071J 21203.48694512 .00003857 00000-0 11895-3 0 9995 2 45119 51.6404 226.9881 0011777 57.4329 302.7789 15.36023271 82557 Phoenix 1 45258U 98067RB 21203.28241108 .00010712 00000-0 15034-3 0 9995 2 45258 51.6381 154.5427 0005982 31.5565 328.5785 15.57307387 80638 AztechSat-1 1 45261U 98067RE 21203.11827215 .00042450 00000-0 38464-3 0 9996 2 45261 51.6347 142.1562 0006530 54.5386 305.6219 15.67582804 80811 QARMAN 1 45263U 98067RG 21203.38287172 .00026164 00000-0 28576-3 0 9996 2 45263 51.6370 146.9641 0006537 47.5115 312.6431 15.63136401 80805 Quetzal 1 1 45598U 98067RL 21203.28028715 .00021487 00000-0 25646-3 0 9990 2 45598 51.6385 152.3067 0002606 99.8133 260.3155 15.60981237 69999 BY70-2 1 45857U 20042B 21203.60003102 .00001135 00000-0 16774-3 0 9995 2 45857 97.9828 278.9831 0012840 100.6354 259.6315 14.77126312 56732 UPMSat 2 1 46276U 20061E 21203.19111977 .00000757 00000-0 42208-4 0 9997 2 46276 97.4310 276.2703 0000833 151.1138 209.0141 15.16523706 48805 AmicalSat 1 46287U 20061R 21203.28616907 .00001105 00000-0 70810-4 0 9990 2 46287 97.4864 275.7889 0002502 14.3359 345.7941 15.10547498 48602 SALSAT 1 46495U 20068K 21203.26872656 -.00000062 00000-0 48984-7 0 9993 2 46495 97.6936 140.5615 0015825 321.2888 38.7204 15.03492657 44560 BY70-3 1 46839U 20079N 21203.55054281 .00003226 00000-0 10055-3 0 9993 2 46839 97.2394 276.7129 0009026 84.3214 28.4986 15.33924662 39582 SPOC 1 46921U 98067RR 21203.36131226 .00010715 00000-0 16348-3 0 9993 2 46921 51.6405 161.8696 0001253 179.0416 181.0578 15.55028050 40297 Bobcat-1 1 46922U 98067RS 21203.39857684 .00016070 00000-0 22437-3 0 9996 2 46922 51.6414 159.8924 0000731 166.5232 193.5780 15.57033233 40289 Neutron-1 1 46923U 98067RT 21203.31546734 .00010259 00000-0 15757-3 0 9990 2 46923 51.6405 162.3106 0000961 200.3308 159.7645 15.54895577 40319 CAPE 3 1 47309U 21002A 21203.42364842 .00002466 00000-0 12009-3 0 9992 2 47309 60.6830 161.2002 0045626 67.2001 293.3895 15.20882038 28207 AO-109 1 47311U 21002C 21203.31392648 .00001567 00000-0 79325-4 0 9994 2 47311 60.6839 160.6895 0039702 66.1717 294.3523 15.21757653 28172 MiTEE 1 1 47314U 21002F 21203.35063944 .00004225 00000-0 18455-3 0 9995 2 47314 60.6841 159.1188 0039958 58.4815 302.0166 15.23301768 28222 ExoCube 2 1 47319U 21002L 21203.42444924 .00002201 00000-0 10740-3 0 9990 2 47319 60.6831 160.6367 0042013 67.5733 292.9795 15.21385843 28159 UVSQ-SAT 1 47438U 21006AB 21203.42931353 .00001147 00000-0 68141-4 0 9990 2 47438 97.4852 264.0245 0012111 344.7132 15.3732 15.13220411 27343 YUSAT 1 1 47439U 21006AC 21203.69611684 .00001638 00000-0 95729-4 0 9999 2 47439 97.4856 264.2858 0011930 344.1950 15.8907 15.13227451 27384 SOMP 2b 1 47445U 21006AJ 21203.77807256 .00001367 00000-0 80861-4 0 9997 2 47445 97.4825 264.2582 0011807 347.8486 12.2458 15.13059395 27391 IDEASSat 1 47458U 21006AX 21203.13277810 .00000964 00000-0 58350-4 0 9998 2 47458 97.4917 263.8052 0010904 348.5510 11.5471 15.12919508 27293 RSP-01 1 47925U 98067SB 21203.33371825 .00010537 00000-0 17770-3 0 9998 2 47925 51.6409 166.9170 0002038 136.3052 223.8099 15.52252430 20191 TAUSAT-1 1 47926U 98067SC 21203.61341426 .00017322 00000-0 27948-3 0 9991 2 47926 51.6403 165.0338 0002900 145.5139 214.6040 15.52996938 20235 Tsuru 1 47927U 98067SD 21203.27814047 .00009641 00000-0 16458-3 0 9997 2 47927 51.6410 167.2959 0002138 136.1391 223.9769 15.52023672 20187 STARS-EC 1 47928U 98067SE 21203.26986278 .00013546 00000-0 22419-3 0 9996 2 47928 51.6405 167.2337 0004115 240.6081 119.4499 15.52500263 20169 Maya-2 1 47929U 98067SF 21203.59745220 .00012899 00000-0 21721-3 0 9998 2 47929 51.6412 165.6783 0002268 136.1721 223.9449 15.52066153 20196 OPUSAT-II 1 47930U 98067SG 21203.30999436 .00015388 00000-0 24977-3 0 9991 2 47930 51.6409 166.7604 0002249 122.9555 237.1651 15.52928825 20190 GuaraniSat-1 1 47931U 98067SH 21203.27439238 .00009530 00000-0 16252-3 0 9996 2 47931 51.6411 167.2719 0002330 133.9116 226.2066 15.52066468 20187 CubeSX-Sirius-HSE 1 47951U 21022V 21203.74687133 .00001238 00000-0 89433-4 0 9995 2 47951 97.5557 105.1913 0021986 187.6902 249.3670 15.05718328 18364 CubeSX-HSE 1 47952U 21022W 21203.87432119 .00001243 00000-0 89701-4 0 9996 2 47952 97.5555 105.3226 0021854 186.4960 238.0378 15.05759718 18387 KSU-Cubesat 1 47954U 21022Y 21203.25813880 .00000800 00000-0 59145-4 0 9995 2 47954 97.5569 104.7389 0021238 187.9537 172.1357 15.05841079 18016 GRBAlpha 1 47959U 21022AD 21203.74170910 .00001249 00000-0 90129-4 0 9999 2 47959 97.5560 105.2011 0021706 187.7558 237.1122 15.05758243 17180 Orbicraft-Zorkiy 1 47960U 21022AE 21203.86928700 .00001033 00000-0 75154-4 0 9994 2 47960 97.5577 105.3578 0021394 186.5485 238.4693 15.05827175 17894 STECCO 1 47962U 21022AG 21203.53220200 .00000829 00000-0 59555-4 0 9999 2 47962 97.5540 105.1613 0016701 182.2898 300.8983 15.06879091 17151 DO-111 1 47963U 21022AH 21203.27977585 .00002654 00000-0 17877-3 0 9994 2 47963 97.5556 104.9963 0019134 180.9426 179.1769 15.07405608 17147 MO-110 1 47964U 21022AJ 21203.28933725 .00001197 00000-0 83510-4 0 9993 2 47964 97.5550 104.9792 0019519 181.5343 178.5828 15.07145700 17125 RamSat 1 48850U 98067SL 21203.41906692 .00007000 00000-0 13018-3 0 9993 2 48850 51.6408 168.2167 0003423 275.5042 84.5557 15.50074269 5939 MO-112 1 48868U 98067SP 21203.61677195 .00019522 00000-0 34658-3 0 9992 2 48868 51.6409 167.2872 0001768 286.5171 73.5624 15.50212938 4744 TUBIN 1 48900U 21059X 21203.62492489 .00000588 00000-0 37781-4 0 9991 2 48900 97.5129 332.0564 0011131 152.5095 207.6749 15.12183416 4059 /EX